Terug naar catalogus

STARLINK-37745

ActiefCommunicatieSSO
NORAD 69232·PAYLOAD·🇺🇸 United States

Gelanceerd May 26, 2026 vanaf Vandenberg Space Force Base

Loading…

Volgende Passages (komende 24 uur)

TLE

VersSource: CelesTrak SupGP

Epoch: Sep 14, 2026, 22:41 UTC

1 69232C 26115X   26257.94562500  .00044453  00000+0  13800-2 0  2570
2 69232  97.2830 274.1927 0001430  88.5246 275.5240 15.33414098    10

Volg STARLINK-37745 in realtime met AllMySat

Download on the App Store